When you browse on this site, cookies collect data to enhance your experience and personalize the content and advertising you see.
Visit our Privacy Policy to learn more. By continuing to use the site, you agree to this use of cookies and data.
  • In Romania
  • List of Countries
  • For 7 days
  • Water Temperature
  • Satellite Maps
  • Weather Map
  • Weather Widgets
  • user-avatar
    Login

    Hourly Weather Achenheim

    Today, 22 April, Monday

    Time Temperature Precipitation Wind Pressure Humidity
    00:00 +13°C° 0 mm 1 mps 744 mmHg 64%
    01:00 +12°C° 0 mm 1 mps 744 mmHg 65%
    02:00 +12°C° 0 mm 1 mps 744 mmHg 66%
    03:00 +11°C° 0 mm 1 mps 743 mmHg 67%
    04:00 +10°C° 0 mm 1 mps 743 mmHg 68%
    05:00 +11°C° 0 mm 1 mps 743 mmHg 68%
    06:00 +12°C° 0 mm 1 mps 742 mmHg 68%
    07:00 +12°C° 0 mm 1 mps 742 mmHg 68%
    08:00 +14°C° 0 mm 1 mps 741 mmHg 63%
    09:00 +16°C° 0 mm 2 mps 741 mmHg 59%
    10:00 +18°C° 0 mm 3 mps 740 mmHg 54%
    11:00 +20°C° 0 mm 3 mps 739 mmHg 51%
    12:00 +21°C° 0 mm 3 mps 739 mmHg 48%
    13:00 +23°C° 0 mm 4 mps 738 mmHg 45%
    14:00 +23°C° 0 mm 4 mps 738 mmHg 46%
    15:00 +23°C° 0 mm 5 mps 737 mmHg 46%
    16:00 +25°C° 0 mm 5 mps 736 mmHg 46%
    17:00 +22°C° 0 mm 5 mps 736 mmHg 51%
    18:00 +20°C° 0 mm 4 mps 735 mmHg 55%
    19:00 +19°C° 0 mm 4 mps 735 mmHg 60%
    20:00 +18°C° 0 mm 4 mps 735 mmHg 59%
    21:00 +17°C° 0 mm 4 mps 735 mmHg 59%
    22:00 +16°C° 0 mm 3 mps 735 mmHg 59%
    23:00 +14°C° 0 mm 3 mps 735 mmHg 62%

    Tomorrow, 23 April, Tuesday

    Time Temperature Precipitation Wind Pressure Humidity
    00:00 +13°C° 0 mm 3 mps 735 mmHg 65%
    01:00 +12°C° 0 mm 3 mps 734 mmHg 69%
    02:00 +12°C° 0 mm 3 mps 734 mmHg 72%
    03:00 +12°C° 0 mm 2 mps 734 mmHg 75%
    04:00 +10°C° 0 mm 2 mps 734 mmHg 79%
    05:00 +12°C° 0 mm 2 mps 734 mmHg 78%
    06:00 +12°C° 0 mm 1 mps 733 mmHg 78%
    07:00 +12°C° 0 mm 1 mps 733 mmHg 77%
    08:00 +14°C° 0 mm 1 mps 733 mmHg 72%
    09:00 +16°C° 0 mm 1 mps 733 mmHg 67%
    10:00 +19°C° 0 mm 1 mps 733 mmHg 62%
    11:00 +20°C° 0 mm 1 mps 733 mmHg 59%
    12:00 +22°C° 0 mm 1 mps 733 mmHg 56%
    13:00 +23°C° 0 mm 1 mps 732 mmHg 52%
    14:00 +23°C° 0.2 mm 1 mps 732 mmHg 53%
    15:00 +23°C° 0.2 mm 1 mps 732 mmHg 55%
    16:00 +23°C° 0.2 mm 1 mps 732 mmHg 56%
    17:00 +22°C° 0.5 mm 1 mps 732 mmHg 62%
    18:00 +21°C° 0.5 mm 1 mps 732 mmHg 69%
    19:00 +19°C° 0.5 mm 1 mps 732 mmHg 76%
    20:00 +19°C° 0 mm 1 mps 733 mmHg 78%
    21:00 +18°C° 0 mm 1 mps 733 mmHg 81%
    22:00 +16°C° 0 mm 1 mps 734 mmHg 83%
    23:00 +16°C° 0 mm 1 mps 734 mmHg 83%

    Day after tomorrow, 24 April, Wednesday

    Time Temperature Precipitation Wind Pressure Humidity
    00:00 +15°C° 0 mm 2 mps 735 mmHg 83%
    01:00 +15°C° 0 mm 2 mps 735 mmHg 84%
    02:00 +14°C° 0 mm 2 mps 736 mmHg 84%
    03:00 +14°C° 0 mm 2 mps 736 mmHg 85%
    04:00 +14°C° 0 mm 2 mps 737 mmHg 85%
    05:00 +14°C° 0.1 mm 2 mps 737 mmHg 85%
    06:00 +15°C° 0.1 mm 1 mps 737 mmHg 84%
    07:00 +15°C° 0.1 mm 1 mps 738 mmHg 84%
    08:00 +18°C° 0 mm 1 mps 738 mmHg 75%
    09:00 +20°C° 0 mm 1 mps 738 mmHg 67%
    10:00 +20°C° 0 mm 0 mps 739 mmHg 59%
    11:00 +23°C° 0 mm 1 mps 739 mmHg 56%
    12:00 +24°C° 0 mm 2 mps 739 mmHg 54%
    13:00 +25°C° 0 mm 3 mps 738 mmHg 52%
    14:00 +25°C° 0 mm 3 mps 738 mmHg 50%
    15:00 +26°C° 0 mm 3 mps 738 mmHg 48%
    16:00 +26°C° 0 mm 3 mps 738 mmHg 46%
    17:00 +24°C° 0 mm 2 mps 737 mmHg 52%
    18:00 +23°C° 0 mm 2 mps 737 mmHg 59%
    19:00 +20°C° 0 mm 2 mps 737 mmHg 66%
    20:00 +18°C° 0 mm 3 mps 738 mmHg 71%
    21:00 +15°C° 0 mm 4 mps 738 mmHg 76%
    22:00 +13°C° 0 mm 4 mps 739 mmHg 81%
    23:00 +13°C° 0 mm 4 mps 740 mmHg 79%

    25 April, Thursday

    Time Temperature Precipitation Wind Pressure Humidity
    00:00 +13°C° 0 mm 3 mps 740 mmHg 78%
    01:00 +14°C° 0 mm 2 mps 741 mmHg 76%
    02:00 +13°C° 0.2 mm 3 mps 741 mmHg 75%
    03:00 +12°C° 0.2 mm 3 mps 742 mmHg 74%
    04:00 +11°C° 0.2 mm 3 mps 742 mmHg 73%
    05:00 +11°C° 0.1 mm 3 mps 742 mmHg 75%
    06:00 +12°C° 0.1 mm 2 mps 742 mmHg 78%
    07:00 +12°C° 0.1 mm 2 mps 742 mmHg 81%
    08:00 +14°C° 0 mm 2 mps 742 mmHg 73%
    09:00 +16°C° 0 mm 2 mps 742 mmHg 66%
    10:00 +18°C° 0 mm 2 mps 742 mmHg 58%
    11:00 +20°C° 0 mm 2 mps 742 mmHg 55%
    12:00 +21°C° 0 mm 2 mps 742 mmHg 52%
    13:00 +23°C° 0 mm 2 mps 741 mmHg 48%
    14:00 +22°C° 0.2 mm 3 mps 741 mmHg 50%
    15:00 +22°C° 0.2 mm 3 mps 741 mmHg 52%
    16:00 +22°C° 0.2 mm 4 mps 741 mmHg 54%
    17:00 +20°C° 0.1 mm 4 mps 741 mmHg 62%
    18:00 +18°C° 0.1 mm 4 mps 741 mmHg 69%
    19:00 +15°C° 0.1 mm 4 mps 742 mmHg 77%
    20:00 +14°C° 0.1 mm 3 mps 742 mmHg 78%
    21:00 +13°C° 0.1 mm 3 mps 743 mmHg 79%
    22:00 +13°C° 0.1 mm 2 mps 744 mmHg 80%
    23:00 +12°C° 0.2 mm 2 mps 744 mmHg 81%

    26 April, Friday

    Time Temperature Precipitation Wind Pressure Humidity
    00:00 +12°C° 0.2 mm 2 mps 744 mmHg 82%
    01:00 +10°C° 0.2 mm 2 mps 744 mmHg 83%
    02:00 +10°C° 1.1 mm 2 mps 745 mmHg 86%
    03:00 +9°C° 1.1 mm 2 mps 745 mmHg 88%
    04:00 +9°C° 1.1 mm 2 mps 745 mmHg 91%
    05:00 +8°C° 0.8 mm 2 mps 746 mmHg 91%
    06:00 +8°C° 0.8 mm 2 mps 747 mmHg 90%
    07:00 +8°C° 0.8 mm 2 mps 748 mmHg 90%
    08:00 +9°C° 0.1 mm 3 mps 749 mmHg 86%
    09:00 +10°C° 0.1 mm 3 mps 749 mmHg 82%
    10:00 +10°C° 0.1 mm 3 mps 750 mmHg 79%
    11:00 +11°C° 0.2 mm 4 mps 750 mmHg 75%
    12:00 +12°C° 0.2 mm 4 mps 750 mmHg 71%
    13:00 +13°C° 0.2 mm 4 mps 750 mmHg 68%
    14:00 +13°C° 0.4 mm 4 mps 750 mmHg 67%
    15:00 +13°C° 0.4 mm 4 mps 750 mmHg 65%
    16:00 +14°C° 0.4 mm 3 mps 750 mmHg 64%
    17:00 +13°C° 0.2 mm 3 mps 750 mmHg 69%
    18:00 +13°C° 0.2 mm 2 mps 751 mmHg 73%
    19:00 +12°C° 0.2 mm 2 mps 751 mmHg 78%
    20:00 +10°C° 0 mm 2 mps 752 mmHg 81%
    21:00 +9°C° 0 mm 2 mps 752 mmHg 84%
    22:00 +8°C° 0 mm 2 mps 753 mmHg 87%
    23:00 +8°C° 0 mm 2 mps 753 mmHg 88%

    27 April, Saturday

    Time Temperature Precipitation Wind Pressure Humidity
    00:00 +7°C° 0 mm 2 mps 754 mmHg 89%
    01:00 +7°C° 0 mm 2 mps 754 mmHg 90%
    02:00 +7°C° 0 mm 2 mps 754 mmHg 91%
    03:00 +7°C° 0 mm 2 mps 754 mmHg 91%
    04:00 +6°C° 0 mm 2 mps 754 mmHg 92%
    05:00 +7°C° 0 mm 2 mps 755 mmHg 90%
    06:00 +7°C° 0 mm 2 mps 755 mmHg 88%
    07:00 +8°C° 0 mm 2 mps 755 mmHg 87%
    08:00 +10°C° 0 mm 2 mps 755 mmHg 81%
    09:00 +12°C° 0 mm 2 mps 755 mmHg 75%
    10:00 +13°C° 0 mm 3 mps 755 mmHg 69%
    11:00 +14°C° 0.1 mm 3 mps 755 mmHg 65%
    12:00 +16°C° 0.1 mm 3 mps 755 mmHg 61%
    13:00 +17°C° 0.1 mm 3 mps 755 mmHg 57%
    14:00 +16°C° 0.1 mm 3 mps 754 mmHg 59%
    15:00 +16°C° 0.1 mm 2 mps 754 mmHg 61%
    16:00 +16°C° 0.1 mm 2 mps 754 mmHg 63%
    17:00 +15°C° 0 mm 2 mps 754 mmHg 66%
    18:00 +15°C° 0 mm 2 mps 755 mmHg 70%
    19:00 +14°C° 0 mm 2 mps 755 mmHg 74%
    20:00 +13°C° 0 mm 2 mps 755 mmHg 75%
    21:00 +13°C° 0 mm 1 mps 755 mmHg 77%
    22:00 +12°C° 0 mm 1 mps 756 mmHg 79%
    23:00 +12°C° 0 mm 2 mps 756 mmHg 81%
    Show more